Regional Weather Roundup
Issued by NWS

Home | Current Version | Previous Version | Text Only | Print | Product List | Glossary On
Versions: 1 2 3 4 5 6 7 8 9 10 11 12 13 14 15 16 17 18 19 20 21 22 23 24 25 26 27 28 29 30 31 32 33 34 35 36 37 38 39 40 41 42 43 44 45 46 47 48 49 50
000
ASUS43 KLMK 270410
RWRKY
NATIONAL WEATHER SERVICE LOUISVILLE KY
1100 PM EST WED NOV 26 2014

NOTE "FAIR" INDICATES FEW OR NO CLOUDS BELOW 12,000 FEET
WITH NO SIGNIFICANT WEATHER AND/OR OBSTRUCTIONS TO VISIBILITY.

KYZ001>023-026-027-061>063-070>075-270500-
WESTERN AND SOUTH CENTRAL KENTUCKY

CITY           SKY/WX    TMP DP  RH WIND       PRES   REMARKS
PADUCAH        CLOUDY    38  35  89 W9        30.09R WCI  31
HENDERSON      CLOUDY    34  30  86 CALM      30.06R
OWENSBORO      LGT SNOW  34  33  96 N5        30.06R FOG     WCI  30
HOPKINSVILLE   CLOUDY    38  37  95 W15       30.06R WCI  30
BOWLING GREEN  LGT RAIN  37  34  89 W3        30.04R
GLASGOW        LGT RAIN  34  34 100 CALM      30.02S
$$

KYZ024-025-028>034-038-045-046-053-270500-
NORTH CENTRAL KENTUCKY

CITY           SKY/WX    TMP DP  RH WIND       PRES   REMARKS
LOUISVILLE/SDF CLOUDY    38  28  67 N9        30.03F WCI  31
LOUISVILLE/LOU MOCLDY    37  28  70 N6        30.04F WCI  32
FORT KNOX      CLOUDY    37  30  76 CALM      30.01F
$$

KYZ035>037-039>044-047>052-055>060-089>105-270500-
NORTHEAST KENTUCKY

CITY           SKY/WX    TMP DP  RH WIND       PRES   REMARKS
LEXINGTON      CLOUDY    34  29  82 NE5       30.03S WCI  30
COVINGTON      CLOUDY    31  23  72 N6        30.05S WCI  25
FRANKFORT      CLOUDY    36  28  73 NE5       30.03S WCI  32
$$

KYZ054-064>069-076>088-106>120-270500-
SOUTHEAST KENTUCKY

CITY           SKY/WX    TMP DP  RH WIND       PRES   REMARKS
JACKSON        CLOUDY    38  28  67 CALM      30.00S
LONDON         CLOUDY    40  27  59 W8        30.02R WCI  34
SOMERSET       LGT RAIN  36  32  87 CALM      30.04F
MIDDLESBORO    NOT AVBL
MONTICELLO     FLURRIES  37  34  89 CALM      30.05F
$$




USA.gov is the U.S. government's official web portal to all federal, state and local government web resources and services.